This demonstration page uses our WeatherBlox Daily Observations layout. Learn more.

40.92945, -100.16068

Hourly Observations for May 24, 2016

Temp ( °F °C ) Dew Point ( °F °C ) Humidity (%) Winds ( mph kmh ) Pressure ( in mb ) Visibility ( mi km ) Precip ( " mm )
12:15 am 00:15 Clear 57 13.8 54 12 89 89 Calm 29.8 1009 10 16.0934 N/A
12:35 am 00:35 Clear 59 15 48 8.8 67 67 N 7 11 29.8 1009 10 16.0934 N/A
12:55 am 00:55 Clear 56 13.2 49 9.2 77 77 NNW 7 11 29.83 1010 10 16.0934 N/A
1:15 am 01:15 Clear 54 12.1 48 8.8 80 80 NW 7 11 29.8 1009 10 16.0934 N/A
1:35 am 01:35 Clear 53 11.9 48 8.7 81 81 N 6 9 29.8 1009 10 16.0934 N/A
1:55 am 01:55 Clear 52 11.3 47 8.5 83 83 NNW 5 7 29.83 1010 10 16.0934 N/A
2:15 am 02:15 Clear 53 11.5 47 8.5 82 82 Calm 29.8 1009 10 16.0934 N/A
2:35 am 02:35 Clear 52 11.3 47 8.6 84 84 Calm 29.83 1010 10 16.0934 N/A
2:55 am 02:55 Clear 52 11.1 48 9.1 88 88 S 5 7 29.85 1011 10 16.0934 N/A
3:15 am 03:15 Partly Cloudy 53 11.4 49 9.3 87 87 Calm 29.85 1011 10 16.0934 N/A
3:35 am 03:35 Partly Cloudy 54 12.3 49 9.7 84 84 Calm 29.83 1010 10 16.0934 N/A
3:55 am 03:55 Partly Cloudy 54 12.1 50 10.1 88 88 NW 3 6 29.8 1009 10 16.0934 N/A
4:15 am 04:15 Partly Cloudy 54 12.2 50 9.8 85 85 NW 7 11 29.83 1010 10 16.0934 N/A
4:35 am 04:35 Partly Cloudy 55 12.5 50 10.1 85 85 NW 3 6 29.8 1009 10 16.0934 N/A
4:55 am 04:55 Clear 54 12.3 50 10.2 87 87 NW 9 15 29.83 1010 10 16.0934 N/A
5:15 am 05:15 Clear 55 12.6 50 10 84 84 NW 6 9 29.85 1011 10 16.0934 N/A
5:35 am 05:35 Partly Cloudy 55 12.8 50 10.2 84 84 WSW 5 7 29.88 1012 10 16.0934 N/A
5:55 am 05:55 Partly Cloudy 55 12.8 49 9.7 82 82 W 8 13 29.88 1012 10 16.0934 N/A
6:15 am 06:15 Sunny 55 12.7 50 9.8 83 83 W 7 11 29.88 1012 10 16.0934 N/A
6:35 am 06:35 Mostly Cloudy 55 13 51 10.5 85 85 Calm 29.88 1012 10 16.0934 N/A
6:55 am 06:55 Cloudy 56 13.4 51 10.4 82 82 W 3 6 29.88 1012 10 16.0934 N/A
7:15 am 07:15 Mostly Cloudy 56 13.5 51 10.7 83 83 N 5 7 29.85 1011 10 16.0934 N/A
7:35 am 07:35 Partly Cloudy 56 13.2 51 10.7 85 85 NE 6 9 29.85 1011 10 16.0934 N/A
7:55 am 07:55 Sunny 56 13.4 51 10.5 83 83 SE 7 11 29.83 1010 10 16.0934 N/A
8:15 am 08:15 Sunny 58 14.4 52 11.3 82 82 ESE 5 7 29.85 1011 10 16.0934 N/A
8:35 am 08:35 Sunny 61 15.9 53 11.7 76 76 E 5 7 29.83 1010 10 16.0934 N/A
8:55 am 08:55 Sunny 62 16.9 54 12.3 74 74 SE 5 7 29.83 1010 10 16.0934 N/A
9:15 am 09:15 Sunny 64 17.6 56 13.3 76 76 S 7 11 29.85 1011 10 16.0934 N/A
9:35 am 09:35 Sunny 67 19.3 58 14.7 75 75 SSE 10 17 29.83 1010 10 16.0934 N/A
9:55 am 09:55 Partly Cloudy 68 20.1 61 16.2 78 78 S 16 26 29.83 1010 10 16.0934 N/A
10:15 am 10:15 Mostly Cloudy 68 20 62 16.6 81 81 S 10 17 29.83 1010 10 16.0934 N/A
10:35 am 10:35 Partly Cloudy 70 21.1 62 16.6 76 76 S 12 19 29.83 1010 10 16.0934 N/A
10:55 am 10:55 Sunny 71 21.7 60 15.3 67 67 S 9 15 29.83 1010 10 16.0934 N/A
11:15 am 11:15 Sunny 72 22.1 60 15.4 66 66 S 12 19 29.83 1010 10 16.0934 N/A
11:35 am 11:35 Sunny 72 22.1 59 14.8 63 63 S 13 20 29.85 1011 10 16.0934 N/A
11:55 am 11:55 Sunny 72 22.4 58 14.4 61 61 SSW 8 13 29.85 1011 10 16.0934 N/A
12:15 pm 12:15 Sunny 73 22.6 59 14.9 62 62 S 10 17 29.85 1011 10 16.0934 N/A
12:35 pm 12:35 Sunny 73 23 59 14.9 60 60 S 12 19 29.83 1010 10 16.0934 N/A
12:55 pm 12:55 Sunny 74 23.2 60 15.3 61 61 S 10 17 29.8 1009 10 16.0934 N/A
1:15 pm 13:15 Sunny 74 23.6 59 15.1 59 59 S 10 17 29.8 1009 10 16.0934 N/A
1:35 pm 13:35 Sunny 75 23.8 57 13.9 54 54 S 9 15 29.8 1009 10 16.0934 N/A
1:55 pm 13:55 Sunny 75 24.1 57 14.1 54 54 S 9 15 29.8 1009 10 16.0934 N/A
2:15 pm 14:15 Sunny 76 24.6 58 14.3 53 53 S 14 22 29.8 1009 10 16.0934 N/A
2:35 pm 14:35 Sunny 77 24.8 59 15.2 55 55 SSE 13 20 29.8 1009 10 16.0934 N/A
2:55 pm 14:55 Sunny 77 24.8 57 14 51 51 S 10 17 29.77 1008 10 16.0934 N/A
3:15 pm 15:15 Sunny 77 25.1 58 14.2 51 51 S 13 20 29.77 1008 10 16.0934 N/A
3:35 pm 15:35 Sunny 78 25.5 59 15 52 52 S 12 19 29.77 1008 10 16.0934 N/A
3:55 pm 15:55 Sunny 78 25.5 60 15.7 55 55 S 15 24 29.77 1008 10 16.0934 N/A
4:15 pm 16:15 Sunny 78 25.5 59 15.2 53 53 SSE 9 15 29.77 1008 10 16.0934 N/A
4:35 pm 16:35 Sunny 77 24.9 59 15 54 54 SSE 12 19 29.77 1008 10 16.0934 N/A
4:55 pm 16:55 Partly Cloudy 78 25.8 60 15.7 54 54 S 12 19 29.71 1006 10 16.0934 N/A
5:15 pm 17:15 Partly Cloudy 78 25.8 61 16.2 55 55 S 10 17 29.71 1006 10 16.0934 N/A
5:35 pm 17:35 Mostly Cloudy 77 25.1 60 15.3 55 55 SSE 10 17 29.74 1007 10 16.0934 N/A
5:55 pm 17:55 Mostly Cloudy 75 24.1 59 15.2 58 58 SE 13 20 29.74 1007 10 16.0934 N/A
6:15 pm 18:15 Cloudy 75 24.1 60 15.3 58 58 S 16 26 29.71 1006 10 16.0934 N/A
6:35 pm 18:35 Cloudy 75 24 60 15.3 58 58 SSE 13 20 29.71 1006 10 16.0934 N/A
6:55 pm 18:55 Partly Cloudy 75 24.1 59 15 57 57 SSE 13 20 29.71 1006 10 16.0934 N/A
7:15 pm 19:15 Partly Cloudy 76 24.3 58 14.3 54 54 SSE 12 19 29.71 1006 10 16.0934 N/A
7:35 pm 19:35 Partly Cloudy 75 23.9 58 14.2 55 55 SSE 15 24 29.68 1005 10 16.0934 N/A
7:55 pm 19:55 Partly Cloudy 74 23.4 58 14.5 57 57 SE 9 15 29.68 1005 10 16.0934 N/A
8:15 pm 20:15 Sunny 74 23.1 58 14.4 58 58 SE 8 13 29.68 1005 10 16.0934 N/A
8:35 pm 20:35 Mostly Cloudy 73 22.6 58 14.6 61 61 SE 10 17 29.68 1005 10 16.0934 N/A
8:55 pm 20:55 Partly Cloudy 72 22.3 59 15 63 63 SE 10 17 29.68 1005 10 16.0934 N/A
9:15 pm 21:15 Mostly Cloudy 72 22.3 60 15.5 66 66 SE 9 15 29.68 1005 10 16.0934 N/A
9:35 pm 21:35 Partly Cloudy 71 21.7 60 15.5 68 68 SE 9 15 29.68 1005 10 16.0934 N/A
9:55 pm 21:55 Clear 70 21 60 15.5 71 71 ESE 8 13 29.65 1004 10 16.0934 N/A
10:15 pm 22:15 Partly Cloudy 70 21 60 15.6 71 71 SE 10 17 29.71 1006 10 16.0934 N/A
10:35 pm 22:35 Partly Cloudy 69 20.8 60 15.7 73 73 SE 12 19 29.71 1006 10 16.0934 N/A
10:55 pm 22:55 Clear 69 20.7 60 15.7 73 73 SE 13 20 29.71 1006 10 16.0934 N/A
11:15 pm 23:15 Clear 69 20.6 60 15.7 74 74 ESE 14 22 29.68 1005 10 16.0934 N/A
11:35 pm 23:35 Clear 68 20.2 60 15.6 75 75 ESE 12 19 29.68 1005 10 16.0934 N/A
11:55 pm 23:55 Clear with Nearby Thunderstorms 69 20.3 60 15.8 75 75 W 8 13 29.77 1008 10 16.0934 N/A

Powered by AerisWeather